Flag for Sierra Leone Weather past 2 weeks in Freetown, Sierra Leone

Now
75 °F

Passing clouds.


Feels Like: 73 °F
Forecast: 76 / 88 °F
Wind: No wind

Location: Conakry / Gbessia

Current Time: Oct 21, 2014 at 2:34:04 AM

Latest Report: Oct 21, 2014 at 2:00 AM


Visibility: N/A

Pressure: 29.86 "Hg

Humidity: 100%

Dew point: 75 °F

Location of FreetownLocation

Historic Weather in Freetown — Graph

°F

Freetown temperature yesterday

Maximum temperature yesterday: 88 °F (at 12:00 PM)
Minimum temperature yesterday: 73 °F (at 7:00 PM)
Average temperature yesterday: 81 °F

Past Weeks' High & Low Weather Summary

 TemperatureHumidityPressure
High88 °F (Oct 12, 2:00 PM)100% (Oct 6, 1:00 AM)30.07 "Hg (Oct 6, 1:00 AM)
Low72 °F (Oct 6, 4:00 AM)62% (Oct 6, 4:00 PM)29.56 "Hg (Oct 15, 1:00 PM)
Average80 °F86%29.90 "Hg
* Reported Oct 6 1:00 AM — Oct 21 1:00 AM, Freetown, Weather by CustomWeather, © 2014

Note: Actual official high and low records may vary slightly from our data, if they occured in-between our weather recording intervals... More about our weather records

Advertising

Freetown weather history for previous 24 hours

 ConditionsComfort  
Time TempWeatherWind HumidityBarometerVisibility
1:00 AM
Oct 21
77 °FPassing clouds.5 mph94%29.89 "HgN/A
12:00 AM77 °FPassing clouds.7 mph100%29.89 "HgN/A
11:00 PM
Oct 20
77 °FPassing clouds.7 mph94%29.92 "HgN/A
10:00 PM77 °FWarm.No wind94%29.92 "HgN/A
9:00 PM75 °FThunderstorms. Mostly cloudy.5 mph100%29.92 "Hg5 mi
8:00 PM73 °FThunderstorms. Mostly cloudy.5 mph100%29.86 "Hg5 mi
7:00 PM73 °FThunderstorms. Mostly cloudy.14 mph100%29.89 "Hg1 mi
6:00 PM84 °FThunderstorms. Broken clouds.7 mph79%29.83 "Hg5 mi
5:00 PM86 °FThunderstorms. Broken clouds.9 mph79%29.80 "HgN/A
4:00 PM86 °FThunderstorms. Broken clouds.9 mph75%29.80 "HgN/A
3:00 PM88 °FThunderstorms. Broken clouds.12 mph70%29.80 "Hg5 mi
2:00 PM88 °FScattered clouds.14 mph75%29.83 "HgN/A
1:00 PM88 °FScattered clouds.9 mph70%29.86 "HgN/A
12:00 PM88 °FScattered clouds.7 mph70%29.92 "HgN/A
11:00 AM86 °FScattered clouds.5 mph75%29.92 "HgN/A
10:00 AM84 °FScattered clouds.5 mph79%29.92 "HgN/A
9:00 AM82 °FScattered clouds.5 mph84%29.92 "HgN/A
8:00 AM79 °FPartly sunny.5 mph94%29.92 "HgN/A
7:00 AM75 °FPartly sunny.5 mph100%29.89 "HgN/A
5:00 AM75 °FPassing clouds.5 mph94%29.86 "HgN/A
3:00 AM77 °FWarm.5 mph89%29.86 "HgN/A
2:00 AM77 °FWarm.5 mph89%29.89 "HgN/A
Weather by CustomWeather, © 2014

See weather overviewHow to use our weather pages